Regional Weather Roundup
Issued by NWS Nashville, TN

Home | Current Version | Previous Version | Text Only | Print | Product List | Glossary On
Versions: 1 2 3 4 5 6 7 8 9 10 11 12 13 14 15 16 17 18 19 20 21 22 23 24 25 26 27 28
000
ASUS44 KOHX 282210
RWROHX
MIDDLE TENNESSEE HOURLY WEATHER ROUNDUP
NATIONAL WEATHER SERVICE NASHVILLE TN
500 PM CDT THU JUL 28 2016

NOTE: "FAIR" INDICATES FEW OR NO CLOUDS BELOW 12,000 FEET WITH
NO SIGNIFICANT WEATHER AND/OR OBSTRUCTIONS TO VISIBILITY.

* THESE REPORTS ARE NOT UNDER NWS QUALITY CONTROL AND MAY NOT
  REPORT WEATHER SUCH AS PRECIPITATION AND FOG.


TNZ005>011-023>034-057-059-062>066-078-080-282300
...NORTHERN MIDDLE TENNESSEE...

CITY           SKY/WX    TMP DP  RH WIND       PRES   REMARKS
CLARKSVILLE    MOSUNNY   86  73  65 W7        29.88F HX  93
CROSSVILLE     CLOUDY    72  70  93 W5        29.97R
NASHVILLE      CLOUDY    86  71  60 VRB6      29.91R HX  91
SMYRNA         CLOUDY    83  73  71 CALM      29.92R
SPARTA         CLOUDY    75  73  94 N3        29.93R
$$
TNZ056-058-060-061-075>077-079-093>097-282300
...SOUTHERN MIDDLE TENNESSEE...

CITY           SKY/WX    TMP DP  RH WIND       PRES   REMARKS
COLUMBIA       SUNNY    N/A N/A N/A SW9       29.92S
FAYETTEVILLE   FOG       73  72  94 W10G18    29.99R VSB 3/4
MCMINNVILLE    PTSUNNY   81  77  89 W5        29.94R
SHELBYVILLE    PTSUNNY   81  75  83 SW9       29.95R
TULLAHOMA      CLOUDY    73  73 100 SW7       29.98R
WINCHESTER     CLOUDY    72  72 100 SW5       29.98R
$$


...KEY TO REMARKS...
VSB - VISIBILITY IN MILES
WCI - WIND CHILL INDEX
HX  - HEAT INDEX





USA.gov is the U.S. government's official web portal to all federal, state and local government web resources and services.